Welcome to the New NWS' Forecast!
Most changes are behind the scenes, but click here for differences you might notice.

Regional Weather Roundup (RWR)

Issued by National Weather Service (NWS)

                            
828 
ASUS46 KSEW 171910
RWRWA 

WASHINGTON REGIONAL WEATHER ROUNDUP
NATIONAL WEATHER SERVICE SEATTLE WA
1200 PM PDT MON SEP 17 2018

NOTE:"FAIR" INDICATES FEW OR NO CLOUDS BELOW 12,000 FEET WITH NO 
SIGNIFICANT WEATHER AND/OR OBSTRUCTIONS TO VISIBILITY.

WAZ507-509-555>559-172000-
SEATTLE, TACOMA, EVERETT, AND VICINITY
  
CITY           SKY/WX    TMP DP  RH WIND       PRES   REMARKS
EVERETT        SUNNY     59  45  59 N7        30.16F                  
BOEING FIELD   PTSUNNY   63  45  51 VRB3      30.14F                  
RENTON         SUNNY     62  47  57 NW7       30.14F                  
SEATAC AIRPORT MOSUNNY   62  45  53 N9        30.15S                  
JBLM-MCCHORD   NOT AVBL                                               
PUYALLUP       PTSUNNY   61  52  72 CALM      30.15S                  
BREMERTON      PTSUNNY   60  46  59 E7        30.15F                  
JBLM-FT LEWIS  NOT AVBL                                               
TACOMA NARROWS PTSUNNY   58  46  64 VRB3      30.16S                  
$$
 
WAZ001-503-506-510-514-515-172000-
NORTH INTERIOR
  
CITY           SKY/WX    TMP DP  RH WIND       PRES   REMARKS
BELLINGHAM     MOSUNNY   59  44  57 VRB7      30.15S                  
FRIDAY HARBOR  SUNNY     60  44  55 E6        30.17R                  
EASTSOUND      SUNNY     55  48  76 N6        30.15S                  
PORT ANGELES   SUNNY     58  46  64 VRB7      30.17R                  
EDIZ HOOK      FAIR      54  49  83 NW7       30.17S                  
PORT TOWNSEND  FAIR      61  43  51 VRB3G13   30.16S                  
NAS WHIDBEY    MOSUNNY   61  46  57 W7        30.20S                  
ARLINGTON      SUNNY     61  46  57 VRB5      30.16F                  
BURLINGTON     SUNNY     61  46  59 VRB7G14   30.16S                  
$$
 
WAZ020-022-039-040-504-511-512-172000-
SOUTHWEST INTERIOR
  
CITY           SKY/WX    TMP DP  RH WIND       PRES   REMARKS
SHELTON        PTSUNNY   60  46  59 N3        30.13F                  
OLYMPIA        CLOUDY    58  50  75 NE3       30.16S                  
CHEHALIS       CLOUDY    55  50  82 N6        30.16S                  
KELSO          MOSUNNY   60  50  69 NW7       30.13F                  
VANCOUVER      PTSUNNY   62  50  64 VRB5      30.10F                  
SCAPPOOSE, OR  PTSUNNY   63  47  55 N9        30.10F                  
PORTLAND, OR   PTSUNNY   61  49  64 NW5       30.11F                  
$$
 
WAZ021-516-517-172000-
WASHINGTON COAST
  
CITY           SKY/WX    TMP DP  RH WIND       PRES   REMARKS
FORKS          MOSUNNY   57  45  64 NW6       30.16S                  
HOQUIAM        PTSUNNY   60  51  72 SE5       30.15F                  
ASTORIA, OR    SUNNY     62  48  60 NW8       30.13F                  
$$
 
WAZ019-023-024-040-567>569-172000-
CASCADE MOUNTAINS AND COLUMBIA GORGE
  
CITY           SKY/WX    TMP DP  RH WIND       PRES   REMARKS
STAMPEDE PASS  MOSUNNY   49  43  80 VRB3      30.12R                  
TROUTDALE, OR  PTSUNNY   58  49  72 VRB3      30.10F                  
HOOD RIVER, OR MOCLDY    57  45  62 CALM      30.10F                  
THE DALLES, OR MOSUNNY   63  47  55 N3        30.08F                  
$$

WAZ026-027-041>044-520-521-172000-
EAST SLOPES
  
CITY           SKY/WX    TMP DP  RH WIND       PRES   REMARKS
OMAK           SUNNY     64  41  42 N8        30.09F                  
WENATCHEE      SUNNY     60  38  43 CALM      30.09F                  
ELLENSBURG     SUNNY     62  39  42 CALM      30.09F                  
YAKIMA         SUNNY     64  39  39 VRB6      30.09F                  
SUNNYSIDE ARPT PTCLDY    59  45  58 CALM      30.09F                  
YAKIMA TC      NOT AVBL                                               
$$

WAZ028-034-035-172000-
COLUMBIA BASIN
  
CITY           SKY/WX    TMP DP  RH WIND       PRES   REMARKS
EPHRATA        SUNNY     64  33  31 VRB5      30.08F                  
MOSES LAKE     SUNNY     63  34  33 SW5       30.10F                  
PASCO          MOSUNNY   66  41  40 NE7       30.10F                  
RICHLAND ARPT  PTCLDY    66  40  38 CALM      30.10S                  
HERMISTON, OR  MOSUNNY   66  43  43 VRB5      30.08F                  
$$

WAZ036>038-172000-
NORTHEAST WASHINGTON
  
CITY           SKY/WX    TMP DP  RH WIND       PRES   REMARKS
SPOKANE GEIGER PTSUNNY   60  36  40 NW5       30.10F                  
SPOKANE FELTS  SUNNY     61  36  39 VRB3      30.11F                  
FAIRCHILD AFB  NOT AVBL                                               
COEURDALENE,ID MOSUNNY   59  39  47 CALM      30.11F                  
DEER PARK      MOSUNNY   58  38  47 VRB5      30.12F                  
$$

WAZ029>033-172000-
SOUTHEAST WASHINGTON
  
CITY           SKY/WX    TMP DP  RH WIND       PRES   REMARKS
PULLMAN        MOSUNNY   60  40  47 CALM      30.11F                  
LEWISTON, ID   SUNNY     67  41  38 CALM      30.07F                  
WALLA WALLA    SUNNY     65  37  35 CALM      30.08F                  
PENDLETON, OR  MOSUNNY   65  40  39 W7        30.07F                  
$$
  


000
ASUS46 KSEW 171910
RWRWA 

WASHINGTON REGIONAL WEATHER ROUNDUP
NATIONAL WEATHER SERVICE SEATTLE WA
1200 PM PDT MON SEP 17 2018

NOTE:"FAIR" INDICATES FEW OR NO CLOUDS BELOW 12,000 FEET WITH NO 
SIGNIFICANT WEATHER AND/OR OBSTRUCTIONS TO VISIBILITY.

WAZ507-509-555>559-172000-
SEATTLE, TACOMA, EVERETT, AND VICINITY
  
CITY           SKY/WX    TMP DP  RH WIND       PRES   REMARKS
EVERETT        SUNNY     59  45  59 N7        30.16F                  
BOEING FIELD   PTSUNNY   63  45  51 VRB3      30.14F                  
RENTON         SUNNY     62  47  57 NW7       30.14F                  
SEATAC AIRPORT MOSUNNY   62  45  53 N9        30.15S                  
JBLM-MCCHORD   NOT AVBL                                               
PUYALLUP       PTSUNNY   61  52  72 CALM      30.15S                  
BREMERTON      PTSUNNY   60  46  59 E7        30.15F                  
JBLM-FT LEWIS  NOT AVBL                                               
TACOMA NARROWS PTSUNNY   58  46  64 VRB3      30.16S                  
$$
 
WAZ001-503-506-510-514-515-172000-
NORTH INTERIOR
  
CITY           SKY/WX    TMP DP  RH WIND       PRES   REMARKS
BELLINGHAM     MOSUNNY   59  44  57 VRB7      30.15S                  
FRIDAY HARBOR  SUNNY     60  44  55 E6        30.17R                  
EASTSOUND      SUNNY     55  48  76 N6        30.15S                  
PORT ANGELES   SUNNY     58  46  64 VRB7      30.17R                  
EDIZ HOOK      FAIR      54  49  83 NW7       30.17S                  
PORT TOWNSEND  FAIR      61  43  51 VRB3G13   30.16S                  
NAS WHIDBEY    MOSUNNY   61  46  57 W7        30.20S                  
ARLINGTON      SUNNY     61  46  57 VRB5      30.16F                  
BURLINGTON     SUNNY     61  46  59 VRB7G14   30.16S                  
$$
 
WAZ020-022-039-040-504-511-512-172000-
SOUTHWEST INTERIOR
  
CITY           SKY/WX    TMP DP  RH WIND       PRES   REMARKS
SHELTON        PTSUNNY   60  46  59 N3        30.13F                  
OLYMPIA        CLOUDY    58  50  75 NE3       30.16S                  
CHEHALIS       CLOUDY    55  50  82 N6        30.16S                  
KELSO          MOSUNNY   60  50  69 NW7       30.13F                  
VANCOUVER      PTSUNNY   62  50  64 VRB5      30.10F                  
SCAPPOOSE, OR  PTSUNNY   63  47  55 N9        30.10F                  
PORTLAND, OR   PTSUNNY   61  49  64 NW5       30.11F                  
$$
 
WAZ021-516-517-172000-
WASHINGTON COAST
  
CITY           SKY/WX    TMP DP  RH WIND       PRES   REMARKS
FORKS          MOSUNNY   57  45  64 NW6       30.16S                  
HOQUIAM        PTSUNNY   60  51  72 SE5       30.15F                  
ASTORIA, OR    SUNNY     62  48  60 NW8       30.13F                  
$$
 
WAZ019-023-024-040-567>569-172000-
CASCADE MOUNTAINS AND COLUMBIA GORGE
  
CITY           SKY/WX    TMP DP  RH WIND       PRES   REMARKS
STAMPEDE PASS  MOSUNNY   49  43  80 VRB3      30.12R                  
TROUTDALE, OR  PTSUNNY   58  49  72 VRB3      30.10F                  
HOOD RIVER, OR MOCLDY    57  45  62 CALM      30.10F                  
THE DALLES, OR MOSUNNY   63  47  55 N3        30.08F                  
$$

WAZ026-027-041>044-520-521-172000-
EAST SLOPES
  
CITY           SKY/WX    TMP DP  RH WIND       PRES   REMARKS
OMAK           SUNNY     64  41  42 N8        30.09F                  
WENATCHEE      SUNNY     60  38  43 CALM      30.09F                  
ELLENSBURG     SUNNY     62  39  42 CALM      30.09F                  
YAKIMA         SUNNY     64  39  39 VRB6      30.09F                  
SUNNYSIDE ARPT PTCLDY    59  45  58 CALM      30.09F                  
YAKIMA TC      NOT AVBL                                               
$$

WAZ028-034-035-172000-
COLUMBIA BASIN
  
CITY           SKY/WX    TMP DP  RH WIND       PRES   REMARKS
EPHRATA        SUNNY     64  33  31 VRB5      30.08F                  
MOSES LAKE     SUNNY     63  34  33 SW5       30.10F                  
PASCO          MOSUNNY   66  41  40 NE7       30.10F                  
RICHLAND ARPT  PTCLDY    66  40  38 CALM      30.10S                  
HERMISTON, OR  MOSUNNY   66  43  43 VRB5      30.08F                  
$$

WAZ036>038-172000-
NORTHEAST WASHINGTON
  
CITY           SKY/WX    TMP DP  RH WIND       PRES   REMARKS
SPOKANE GEIGER PTSUNNY   60  36  40 NW5       30.10F                  
SPOKANE FELTS  SUNNY     61  36  39 VRB3      30.11F                  
FAIRCHILD AFB  NOT AVBL                                               
COEURDALENE,ID MOSUNNY   59  39  47 CALM      30.11F                  
DEER PARK      MOSUNNY   58  38  47 VRB5      30.12F                  
$$

WAZ029>033-172000-
SOUTHEAST WASHINGTON
  
CITY           SKY/WX    TMP DP  RH WIND       PRES   REMARKS
PULLMAN        MOSUNNY   60  40  47 CALM      30.11F                  
LEWISTON, ID   SUNNY     67  41  38 CALM      30.07F                  
WALLA WALLA    SUNNY     65  37  35 CALM      30.08F                  
PENDLETON, OR  MOSUNNY   65  40  39 W7        30.07F                  
$$